Regional Weather Roundup
Issued by NWS State College, PA

Home | Current Version | Previous Version | Text Only | Print | Product List | Glossary On
Versions: 1 2 3 4 5 6 7 8 9 10 11 12 13 14 15 16 17 18 19 20 21 22 23 24 25 26 27 28 29 30 31 32 33 34 35 36 37 38 39 40 41 42 43 44 45 46 47 48 49 50
000
ASUS41 KCTP 300803
RWRCTP

REGIONAL WEATHER ROUNDUP
NATIONAL WEATHER SERVICE STATE COLLEGE PA
400 AM EDT SAT AUG 30 2014

Note: "fair" indicates few or no clouds below 12,000 feet with no
significant weather and/or obstructions to visibility.

* = STATION THAT DOES NOT REPORT PRECIPITATION /E.G. RAIN...SNOW...ETC/
    THUNDER OR FOG.

PAZ002>004-007>009-013>016-020>023-029>032-300900-
WESTERN PENNSYLVANIA

CITY           SKY/WX    TMP DP  RH WIND       PRES   REMARKS
ERIE           CLEAR     67  54  63 S16       30.06F
MEADVILLE      CLEAR     62  54  74 VRB3      30.11F
FRANKLIN*      CLEAR     57  52  82 E7        30.14F
NEW CASTLE     FAIR      57  56  97 CALM      30.11F
BEAVER COUNTY  NOT AVBL
BUTLER*        CLEAR     63  54  72 CALM      30.14S
PITTSBURGH INT PTCLDY    63  58  83 CALM      30.10F
PITTSBURGH     CLEAR     63  57  81 SE7       30.10F
INDIANA*       CLEAR     66  57  72 VRB6      30.18S
LATROBE        CLEAR     61  61 100 CALM      30.13F
WASHINGTON CO* CLEAR     57  55  94 CALM      30.11F
$$

PAZ004>006-010>012-017>019-024>028-033>037-041-042-045-046-049>053-300900-
CENTRAL PENNSYLVANIA

CITY           SKY/WX    TMP DP  RH WIND       PRES   REMARKS
BRADFORD       PTCLDY    57  52  83 SE6       30.17F
DUBOIS         CLEAR     60  54  80 SE8       30.15F
CLEARFIELD     CLEAR     52  52 100 N6        30.18F
JOHNSTOWN      CLEAR     61  55  81 S9        30.19F
ALTOONA        CLEAR     59  55  87 CALM      30.20F
STATE COLLEGE  PTCLDY    60  53  78 CALM      30.20S
WILLIAMSPORT   CLEAR     59  53  80 E8        30.20S
SELINSGROVE    CLEAR     53  51  93 CALM      30.23S
FT INDIANTOWN  CLEAR     54  54 100 NE5       30.24F
CAPITAL CITY   MOCLDY    63  58  83 E5        30.22F
HARRISBURG     MOCLDY    63  57  81 E5        30.22S
YORK           PTCLDY    60  57  89 CALM      30.22F
$$

PAZ038>040-043-044-047-048-054-055-060>062-067>071-300900-
EASTERN PENNSYLVANIA

CITY           SKY/WX    TMP DP  RH WIND       PRES   REMARKS
SCRANTON       MOCLDY    63  57  81 SW6       30.24S
MOUNT POCONO   CLOUDY    59  52  77 S6        30.28S
ALLENTOWN      CLEAR     57  54  89 CALM      30.26R
QUAKERTOWN*    SUNNY     54  52  94 CALM      30.27S
READING        MOCLDY    59  56  89 N3        30.24S
LANCASTER      CLOUDY    60  57  89 NE5       30.24S
COATESVILLE    CLOUDY    57  57 100 CALM      30.26S
POTTSTOWN      CLEAR     56  55  97 CALM      30.26S
BLUE BELL      CLEAR     54  52  94 CALM      30.25R
DOYLESTOWN     CLEAR     56  55  97 CALM      30.25R
WILLOW GROVE   NOT AVBL
NORTH PHILA    CLEAR     59  53  80 CALM      30.26S
PHILADELPHIA   PTCLDY    63  58  83 CALM      30.25S
$$



USA.gov is the U.S. government's official web portal to all federal, state and local government web resources and services.